Torna al catalogo

DMSP 5D-2 F13 DEB

AttivoPO
NORAD 40462·DEBRIS·🇺🇸 United States

Lanciato Mar 24, 1995 da Vandenberg Space Force Base

Loading…

Prossimi Passaggi (prossime 24 ore)

TLE

AggiornatoSource: Space-Track

Epoca: Sep 14, 2026, 14:17 UTC

1 40462U 95015BE  26257.59566142  .00007057  00000-0  18643-2 0  9999
2 40462  98.9574 309.8214 0033298 101.4314 259.0621 14.48877563594743

Traccia DMSP 5D-2 F13 DEB in tempo reale con AllMySat

Download on the App Store